GIA009 WAHS-WADD

Flight info

Callsign GIA009
Flight time N/A
Altitude 35000
Route BA T3 MOVMO
Aircraft B738/M-SDE2E3FGHIRWXY/LB1

Departure

Time 2026-04-25 17:11
Airport Jenderal Ahmad Yani Airport (WAHS)

Arrival

Time N/A
Airport Denpasar I Gusti Ngurah Rai International Airport (WADD)
Time Latitude Longitude Altitude Speed Heading
2026-04-25 17:11 -6.98200 110.54730 8492 ft 260 kts 15°
2026-04-25 17:11 -6.96396 110.55134 9204 ft 264 kts 14°
2026-04-25 17:11 -6.94608 110.55519 9902 ft 267 kts 14°
2026-04-25 17:12 -6.92854 110.55897 10529 ft 270 kts 14°
2026-04-25 17:12 -6.90999 110.56297 11189 ft 274 kts 14°
2026-04-25 17:12 -6.89329 110.56659 11792 ft 277 kts 14°
2026-04-25 17:12 -6.87429 110.57071 12469 ft 280 kts 14°
2026-04-25 17:13 -6.85510 110.57489 13160 ft 284 kts 14°
2026-04-25 17:13 -6.84221 110.57769 13624 ft 287 kts 14°
2026-04-25 17:13 -6.81592 110.58344 14475 ft 291 kts 14°
2026-04-25 17:13 -6.79600 110.58777 15147 ft 294 kts 14°
2026-04-25 17:14 -6.77584 110.59217 15808 ft 298 kts 14°
2026-04-25 17:14 -6.75591 110.59791 16425 ft 300 kts 30°
2026-04-25 17:14 -6.74087 110.61167 17030 ft 299 kts 60°
2026-04-25 17:14 -6.73485 110.63171 17674 ft 299 kts 91°
2026-04-25 17:15 -6.73987 110.65190 18263 ft 302 kts 121°
2026-04-25 17:15 -6.75208 110.66922 18812 ft 305 kts 118°
2026-04-25 17:15 -6.76051 110.68890 19358 ft 308 kts 109°
2026-04-25 17:15 -6.76744 110.70914 19923 ft 311 kts 108°
2026-04-25 17:16 -6.77422 110.72995 20484 ft 315 kts 108°
2026-04-25 17:16 -6.78104 110.75130 21057 ft 318 kts 107°
2026-04-25 17:16 -6.78773 110.77237 21618 ft 321 kts 107°
2026-04-25 17:16 -6.79454 110.79381 22168 ft 324 kts 107°
2026-04-25 17:17 -6.80144 110.81557 22715 ft 328 kts 107°
2026-04-25 17:17 -6.80842 110.83752 23250 ft 331 kts 107°
2026-04-25 17:17 -6.81546 110.85967 23734 ft 334 kts 107°
2026-04-25 17:17 -6.82255 110.88198 24210 ft 335 kts 107°
2026-04-25 17:18 -6.82969 110.90444 24685 ft 337 kts 107°
2026-04-25 17:18 -6.83686 110.92697 25144 ft 340 kts 107°
2026-04-25 17:18 -6.84408 110.94971 25613 ft 342 kts 107°
2026-04-25 17:18 -6.85136 110.97261 26062 ft 344 kts 107°
2026-04-25 17:19 -6.85857 110.99529 26534 ft 346 kts 107°
2026-04-25 17:19 -6.86605 111.01884 26632 ft 360 kts 107°
2026-04-25 17:19 -6.87392 111.04364 26731 ft 374 kts 107°
2026-04-25 17:19 -6.88185 111.06860 26814 ft 386 kts 107°
2026-04-25 17:20 -6.89016 111.09479 26902 ft 398 kts 107°
2026-04-25 17:20 -6.89870 111.12170 26960 ft 410 kts 107°
2026-04-25 17:20 -6.90749 111.14936 27028 ft 420 kts 107°
2026-04-25 17:20 -6.91650 111.17774 27087 ft 430 kts 107°
2026-04-25 17:21 -6.92569 111.20670 27144 ft 439 kts 107°
2026-04-25 17:21 -6.93507 111.23624 27206 ft 447 kts 107°
2026-04-25 17:21 -6.94457 111.26620 27380 ft 451 kts 107°
2026-04-25 17:21 -6.95411 111.29626 27700 ft 451 kts 107°
2026-04-25 17:22 -6.96367 111.32640 28006 ft 452 kts 107°
2026-04-25 17:22 -6.97001 111.34641 28184 ft 453 kts 107°
2026-04-25 17:22 -6.98284 111.38691 28511 ft 456 kts 106°
2026-04-25 17:22 -6.99258 111.41746 28755 ft 458 kts 108°
2026-04-25 17:23 -7.00385 111.44747 29001 ft 460 kts 110°
2026-04-25 17:23 -7.01617 111.47732 29229 ft 462 kts 111°
2026-04-25 17:23 -7.02887 111.50707 29459 ft 464 kts 112°
2026-04-25 17:23 -7.04154 111.53649 29726 ft 464 kts 112°
2026-04-25 17:24 -7.05433 111.56630 30049 ft 463 kts 111°
2026-04-25 17:24 -7.06701 111.59610 30375 ft 461 kts 111°
2026-04-25 17:24 -7.07955 111.62581 30686 ft 460 kts 111°
2026-04-25 17:24 -7.09205 111.65558 30950 ft 460 kts 111°
2026-04-25 17:25 -7.10027 111.67521 31124 ft 461 kts 111°
2026-04-25 17:25 -7.11688 111.71496 31521 ft 460 kts 111°
2026-04-25 17:25 -7.12926 111.74463 31834 ft 459 kts 111°
2026-04-25 17:25 -7.14169 111.77440 31868 ft 463 kts 111°
2026-04-25 17:26 -7.16664 111.83419 31876 ft 461 kts 111°
2026-04-25 17:26 -7.19116 111.89291 31882 ft 457 kts 111°
2026-04-25 17:27 -7.21593 111.95229 31894 ft 457 kts 111°
2026-04-25 17:27 -7.23225 111.99142 31888 ft 457 kts 111°
2026-04-25 17:28 -7.26508 112.07015 31885 ft 458 kts 111°
2026-04-25 17:28 -7.28974 112.12933 31885 ft 458 kts 111°
2026-04-25 17:29 -7.31443 112.18861 31885 ft 459 kts 111°
2026-04-25 17:29 -7.33910 112.24786 31888 ft 459 kts 111°
2026-04-25 17:30 -7.36378 112.30714 31889 ft 459 kts 111°
2026-04-25 17:30 -7.38842 112.36638 31891 ft 459 kts 111°
2026-04-25 17:31 -7.41294 112.42533 31893 ft 458 kts 111°
2026-04-25 17:31 -7.43754 112.48452 31893 ft 458 kts 111°
2026-04-25 17:32 -7.46214 112.54373 31895 ft 458 kts 111°
2026-04-25 17:32 -7.48675 112.60298 31896 ft 458 kts 111°
2026-04-25 17:33 -7.51131 112.66214 31894 ft 458 kts 111°
2026-04-25 17:33 -7.53584 112.72125 31893 ft 457 kts 111°
2026-04-25 17:34 -7.56039 112.78046 31889 ft 458 kts 111°
2026-04-25 17:34 -7.58493 112.83964 31895 ft 458 kts 111°
2026-04-25 17:35 -7.60946 112.89884 31899 ft 458 kts 111°
2026-04-25 17:35 -7.63385 112.95772 31904 ft 458 kts 111°
2026-04-25 17:36 -7.65837 113.01695 31908 ft 458 kts 111°
2026-04-25 17:36 -7.68293 113.07629 31910 ft 458 kts 111°
2026-04-25 17:37 -7.70748 113.13564 31910 ft 458 kts 111°
2026-04-25 17:37 -7.73205 113.19505 31909 ft 459 kts 111°
2026-04-25 17:38 -7.74828 113.23432 31913 ft 459 kts 111°
2026-04-25 17:38 -7.78094 113.31338 31911 ft 459 kts 111°
2026-04-25 17:39 -7.80545 113.37275 31914 ft 459 kts 111°
2026-04-25 17:39 -7.83000 113.43222 31913 ft 459 kts 111°
2026-04-25 17:40 -7.85455 113.49173 31919 ft 459 kts 111°
2026-04-25 17:40 -7.87906 113.55118 31928 ft 459 kts 111°
2026-04-25 17:41 -7.90362 113.61077 31922 ft 460 kts 111°
2026-04-25 17:41 -7.92402 113.66028 31922 ft 460 kts 111°
2026-04-25 17:42 -7.94855 113.71985 31927 ft 460 kts 111°
2026-04-25 17:42 -7.97701 113.78901 31930 ft 460 kts 111°
2026-04-25 17:43 -7.99751 113.83863 31933 ft 460 kts 113°
2026-04-25 17:43 -8.02190 113.87335 31944 ft 463 kts 136°